Tiempo cada hora Lebu

Hoy, 25 Octubre, Domingo

Tiempo Temperatura Precipitaciones Viento Presión Humedad
00:00 +5°C° 0 mm 2 mps 751 mmHg 96%
01:00 +5°C° 0 mm 2 mps 751 mmHg 97%
02:00 +4°C° 0 mm 3 mps 751 mmHg 96%
03:00 +4°C° 0 mm 3 mps 751 mmHg 96%
04:00 +3°C° 0 mm 3 mps 751 mmHg 95%
05:00 +5°C° 0 mm 3 mps 752 mmHg 88%
06:00 +8°C° 0 mm 3 mps 752 mmHg 81%
07:00 +10°C° 0 mm 3 mps 752 mmHg 74%
08:00 +11°C° 0 mm 3 mps 752 mmHg 66%
09:00 +12°C° 0 mm 4 mps 753 mmHg 58%
10:00 +14°C° 0 mm 4 mps 753 mmHg 51%
11:00 +14°C° 0 mm 4 mps 753 mmHg 49%
12:00 +14°C° 0 mm 4 mps 753 mmHg 48%
13:00 +14°C° 0 mm 4 mps 752 mmHg 47%
14:00 +13°C° 0 mm 4 mps 752 mmHg 49%
15:00 +13°C° 0 mm 4 mps 752 mmHg 51%
16:00 +12°C° 0 mm 4 mps 752 mmHg 53%
17:00 +10°C° 0 mm 4 mps 752 mmHg 62%
18:00 +8°C° 0 mm 3 mps 752 mmHg 71%
19:00 +5°C° 0 mm 3 mps 753 mmHg 80%
20:00 +4°C° 0 mm 3 mps 752 mmHg 84%
21:00 +5°C° 0 mm 2 mps 752 mmHg 87%
22:00 +4°C° 0 mm 2 mps 752 mmHg 90%
23:00 +4°C° 0 mm 2 mps 752 mmHg 88%

Mañana, 26 Octubre, Lunes

Tiempo Temperatura Precipitaciones Viento Presión Humedad
00:00 +4°C° 0 mm 2 mps 751 mmHg 87%
01:00 +4°C° 0 mm 2 mps 750 mmHg 85%
02:00 +4°C° 0 mm 2 mps 750 mmHg 83%
03:00 +6°C° 0 mm 1 mps 749 mmHg 80%
04:00 +6°C° 0 mm 1 mps 749 mmHg 78%
05:00 +7°C° 0 mm 1 mps 749 mmHg 73%
06:00 +9°C° 0 mm 1 mps 749 mmHg 68%
07:00 +10°C° 0 mm 1 mps 748 mmHg 63%
08:00 +12°C° 0 mm 1 mps 748 mmHg 58%
09:00 +13°C° 0 mm 1 mps 748 mmHg 53%
10:00 +14°C° 0 mm 1 mps 748 mmHg 48%
11:00 +15°C° 0 mm 2 mps 748 mmHg 50%
12:00 +14°C° 0 mm 3 mps 748 mmHg 51%
13:00 +14°C° 0 mm 3 mps 747 mmHg 53%
14:00 +13°C° 0 mm 3 mps 747 mmHg 57%
15:00 +13°C° 0 mm 4 mps 747 mmHg 61%
16:00 +13°C° 0 mm 4 mps 747 mmHg 65%
17:00 +12°C° 0.1 mm 4 mps 747 mmHg 71%
18:00 +11°C° 0.1 mm 4 mps 746 mmHg 77%
19:00 +10°C° 0.1 mm 4 mps 746 mmHg 83%
20:00 +8°C° 0.9 mm 4 mps 746 mmHg 88%
21:00 +8°C° 0.9 mm 5 mps 746 mmHg 93%
22:00 +8°C° 0.9 mm 5 mps 746 mmHg 97%
23:00 +8°C° 0.5 mm 4 mps 746 mmHg 98%

Pasado mañana, 27 Octubre, Martes

Tiempo Temperatura Precipitaciones Viento Presión Humedad
00:00 +10°C° 0.5 mm 4 mps 746 mmHg 98%
01:00 +10°C° 0.5 mm 3 mps 746 mmHg 98%
02:00 +10°C° 0.1 mm 3 mps 746 mmHg 98%
03:00 +9°C° 0.1 mm 3 mps 746 mmHg 97%
04:00 +9°C° 0.1 mm 3 mps 746 mmHg 97%
05:00 +9°C° 0.2 mm 3 mps 746 mmHg 96%
06:00 +8°C° 0.2 mm 4 mps 746 mmHg 95%
07:00 +8°C° 0.2 mm 4 mps 747 mmHg 94%
08:00 +10°C° 0.1 mm 4 mps 747 mmHg 84%
09:00 +11°C° 0.1 mm 4 mps 747 mmHg 75%
10:00 +12°C° 0.1 mm 3 mps 748 mmHg 65%
11:00 +12°C° 0 mm 4 mps 748 mmHg 59%
12:00 +13°C° 0 mm 4 mps 748 mmHg 53%
13:00 +13°C° 0 mm 5 mps 748 mmHg 47%
14:00 +12°C° 0.2 mm 5 mps 749 mmHg 54%
15:00 +12°C° 0.2 mm 5 mps 749 mmHg 60%
16:00 +10°C° 0.2 mm 6 mps 749 mmHg 67%
17:00 +8°C° 0 mm 5 mps 750 mmHg 73%
18:00 +7°C° 0 mm 5 mps 750 mmHg 78%
19:00 +5°C° 0 mm 4 mps 751 mmHg 83%
20:00 +5°C° 0 mm 4 mps 752 mmHg 86%
21:00 +4°C° 0 mm 3 mps 752 mmHg 88%
22:00 +4°C° 0 mm 3 mps 753 mmHg 91%
23:00 +3°C° 0 mm 3 mps 753 mmHg 92%

28 Octubre, Miércoles

Tiempo Temperatura Precipitaciones Viento Presión Humedad
00:00 +3°C° 0 mm 3 mps 753 mmHg 93%
01:00 +2°C° 0 mm 3 mps 753 mmHg 94%
02:00 +3°C° 0 mm 2 mps 754 mmHg 94%
03:00 +3°C° 0 mm 2 mps 754 mmHg 94%
04:00 +3°C° 0 mm 2 mps 754 mmHg 95%
05:00 +5°C° 0 mm 2 mps 754 mmHg 85%
06:00 +7°C° 0 mm 2 mps 755 mmHg 74%
07:00 +10°C° 0 mm 1 mps 755 mmHg 64%
08:00 +12°C° 0 mm 2 mps 755 mmHg 59%
09:00 +13°C° 0 mm 2 mps 755 mmHg 53%
10:00 +13°C° 0 mm 3 mps 755 mmHg 48%
11:00 +14°C° 0 mm 4 mps 755 mmHg 48%
12:00 +14°C° 0 mm 4 mps 755 mmHg 48%
13:00 +14°C° 0 mm 5 mps 755 mmHg 48%
14:00 +14°C° 0 mm 5 mps 755 mmHg 52%
15:00 +13°C° 0 mm 5 mps 754 mmHg 56%
16:00 +13°C° 0 mm 5 mps 754 mmHg 59%
17:00 +10°C° 0 mm 5 mps 754 mmHg 69%
18:00 +9°C° 0 mm 5 mps 754 mmHg 78%
19:00 +7°C° 0 mm 5 mps 754 mmHg 88%
20:00 +7°C° 0 mm 5 mps 754 mmHg 90%
21:00 +6°C° 0 mm 5 mps 754 mmHg 91%
22:00 +5°C° 0 mm 6 mps 754 mmHg 93%
23:00 +4°C° 0 mm 6 mps 754 mmHg 92%

29 Octubre, Jueves

Tiempo Temperatura Precipitaciones Viento Presión Humedad
00:00 +4°C° 0 mm 6 mps 753 mmHg 91%
01:00 +4°C° 0 mm 7 mps 753 mmHg 90%
02:00 +3°C° 0 mm 7 mps 752 mmHg 90%
03:00 +3°C° 0 mm 7 mps 752 mmHg 90%
04:00 +3°C° 0 mm 7 mps 751 mmHg 90%
05:00 +4°C° 0 mm 7 mps 751 mmHg 82%
06:00 +6°C° 0 mm 7 mps 751 mmHg 74%
07:00 +9°C° 0 mm 7 mps 751 mmHg 67%
08:00 +11°C° 0 mm 7 mps 751 mmHg 60%
09:00 +12°C° 0 mm 7 mps 751 mmHg 54%
10:00 +15°C° 0 mm 8 mps 750 mmHg 47%
11:00 +15°C° 0 mm 8 mps 750 mmHg 48%
12:00 +15°C° 0 mm 9 mps 750 mmHg 49%
13:00 +16°C° 0 mm 9 mps 749 mmHg 49%
14:00 +15°C° 0 mm 9 mps 749 mmHg 54%
15:00 +13°C° 0 mm 9 mps 748 mmHg 59%
16:00 +12°C° 0 mm 9 mps 748 mmHg 64%
17:00 +11°C° 0 mm 9 mps 748 mmHg 69%
18:00 +10°C° 0 mm 9 mps 748 mmHg 74%
19:00 +8°C° 0 mm 9 mps 748 mmHg 79%
20:00 +8°C° 0 mm 9 mps 748 mmHg 80%
21:00 +7°C° 0 mm 8 mps 748 mmHg 81%
22:00 +7°C° 0 mm 8 mps 748 mmHg 82%
23:00 +7°C° 0 mm 8 mps 748 mmHg 84%

30 Octubre, Viernes

Tiempo Temperatura Precipitaciones Viento Presión Humedad
00:00 +8°C° 0 mm 7 mps 748 mmHg 87%
01:00 +6°C° 0 mm 7 mps 748 mmHg 90%
02:00 +6°C° 0 mm 7 mps 748 mmHg 90%
03:00 +5°C° 0 mm 6 mps 748 mmHg 89%
04:00 +5°C° 0 mm 6 mps 748 mmHg 89%
05:00 +8°C° 0 mm 6 mps 748 mmHg 81%
06:00 +9°C° 0 mm 6 mps 749 mmHg 72%
07:00 +11°C° 0 mm 6 mps 749 mmHg 64%
08:00 +13°C° 0 mm 6 mps 749 mmHg 60%
09:00 +15°C° 0 mm 6 mps 749 mmHg 56%
10:00 +16°C° 0 mm 6 mps 749 mmHg 52%
11:00 +16°C° 0 mm 6 mps 749 mmHg 52%
12:00 +17°C° 0 mm 7 mps 749 mmHg 53%
13:00 +17°C° 0 mm 7 mps 749 mmHg 53%
14:00 +16°C° 0 mm 7 mps 749 mmHg 57%
15:00 +15°C° 0 mm 7 mps 749 mmHg 61%
16:00 +14°C° 0 mm 7 mps 749 mmHg 65%
17:00 +11°C° 0 mm 7 mps 749 mmHg 72%
18:00 +10°C° 0 mm 7 mps 750 mmHg 80%
19:00 +9°C° 0 mm 7 mps 750 mmHg 88%
20:00 +8°C° 0 mm 7 mps 750 mmHg 88%
21:00 +8°C° 0 mm 7 mps 750 mmHg 89%
22:00 +8°C° 0 mm 7 mps 750 mmHg 89%
23:00 +8°C° 0 mm 6 mps 750 mmHg 91%
Mostrar más

Necesitamos Su Consentimiento

Meteoprog y nuestros Proveedores de Servicios pueden almacenar y acceder a sus datos personales como cookies, identificadores de dispositivo u otras tecnologías similares de su dispositivo y procesar dichos datos para personalizar contenido y anuncios, además de ofrecer funciones de redes sociales y analizar el tráfico.

  • Almacenar y/o acceder a información en su dispositivo

    Se puede almacenar o acceder a cookies, identificadores de dispositivo u otra información de su dispositivo para los fines anteriormente indicados.

  • Anuncios y contenido personalizados, medición de anuncios y contenido, percepciones del público, y desarrollo de productos

    Los anuncios y el contenido pueden personalizarse en base a su perfil. Se pueden añadir más datos para personalizar mejor los anuncios y contenidos. Se puede medir el rendimiento de los anuncios y contenidos. Se puede obtener la percepción sobre el público que ha visto los anuncios y contenidos. Dichos datos pueden usarse para desarrollar o mejorar la experiencia del usuario, sistemas y software.

Al hacer clic en ‘Estoy De Acuerdo’ usted permitirá el uso de las cookies, identificadores de dispositivo, balizas web u otras tecnologías similares indicadas. Su configuración puede cambiarse desde el navegador de su dispositivo.

Para ciertos fines, los intereses legítimos pueden ser considerados por encima del consentimiento. Puede leer más sobre ello en nuestra Política de Privacidad y Cookies.